Location: Martley
(52.2333°N, 2.3667°W)
Time: 05:57:39
(UTC+00:00)

SAR-Lupe-2 - Pass Details

Date: 11 December 2019
Orbit: 482 x 484 km, 98.1° (Epoch: 21 January)

Event Time Altitude Azimuth Distance (km) Brightness Sun altitude
Rises 07:14:38 0° 178° (S) 2,540 7.7 -7.7°
Reaches altitude 10° 07:16:44 10° 184° (S) 1,665 6.6 -7.4°
Maximum altitude 07:20:12 46° 259° (W) 658 3.9 -7.0°
Drops below altitude 10° 07:23:42 10° 335° (NNW) 1,679 5.8 -6.5°
Enters shadow 07:25:26 - 340° (NNW) 2,401 6.6 -6.3°
